Погода в Губкинском

Россия / Ямало-Ненецкий автономный округ     64°25′57″N   76°30′01″E
темп.,
°C
ветер,
м/с
пор.,
м/с
влажн.,
%
обл.,
%
осадки,
мм/ч
давл.,
гПа
погр.,
м
22 января, пт
пт2223:00−38всв611973 0.0 1021131
02:00−39всв7119723 0.0 1020151
05:00−39св7119727 0.0 1021148
08:00−40св7119526 0.0 1021152
11:00−40св7109623 0.0 1022167
14:00−41ссв699652 0.0 1023135
17:00−43ссв589752 0.0 1024100
20:00−44ссв569755 0.0 102574
23 января, сб
сб2323:00−44ссв559650 0.0 102657
02:00−44ссв559621 0.0 102747
05:00−45ссв459628 0.0 102940
08:00−45с459418 0.0 103035
11:00−43с45929 0.0 103154
14:00−43с44924 0.0 103232
17:00−43с45913 0.0 103428
20:00−43с44927 0.0 103526
24 января, вс
вс2423:00−43с44943 0.0 103623
02:00−43с44944 0.0 103721
05:00−43с349516 0.0 103818
08:00−43с349645 0.0 103918
11:00−43с239546 0.0 104018
14:00−43с229550 0.0 104118
17:00−44ссз229649 0.0 104218
20:00−44с129845 0.0 104318
25 января, пн
пн2523:00−45ссз0010040 0.0 104418
02:00−44зсз1110018 0.0 104518
05:00−44зюз0010012 0.0 104518
08:00−44ю11950 0.0 104618
11:00−42ю22900 0.0 104618
14:00−41ю22890 0.0 104718
17:00−42ю23880 0.0 104718
20:00−42ююв34880 0.0 104718
26 января, вт
вт2623:00−42ю44900 0.0 104724
02:00−42ю45930 0.0 104729
05:00−42ю55950 0.0 104643
08:00−42ю569631 0.0 104673
11:00−39ю699465 0.0 1045170
14:00−37ю71192100 0.0 1043241
17:00−35ю81291100 0.0 1041285
20:00−33ю101596100 0.1 1038324